FW1196 Weather Reports


time (UTC)temp
C
wind
direction
speed
KPH
gust
KPH
rain 1hr
cm
rain 24hr
cm
rain mn
cm
humidity
%
barometer
mb
20260507100022 8 140 0.0 0.0 0.00 0.00 0.00 50 1015.0
20260507094521 8 140 0.0 0.0 0.00 0.00 0.00 53 1014.9
20260507093020 8 304 0.0 0.0 0.00 0.00 0.00 53 1014.9
20260507091517 8 302 0.0 0.0 0.00 0.00 0.00 52 1014.9
20260507090015 9 302 0.0 0.0 0.00 0.00 0.00 51 1015.1
20260507084529 9 302 0.0 0.0 0.00 0.00 0.00 51 1015.1
20260507083012 9 302 0.0 0.0 0.00 0.00 0.00 51 1015.2
20260507081513 10 305 0.0 0.0 0.00 0.00 0.00 50 1015.3
20260507080007 10 305 0.0 0.0 0.00 0.00 0.00 49 1015.4
20260507074522 10 305 0.0 0.0 0.00 0.00 0.00 49 1015.3
20260507073005 10 305 0.0 0.0 0.00 0.00 0.00 48 1015.3
20260507071503 11 304 0.0 0.0 0.00 0.00 0.00 47 1015.3
20260507070108 11 304 0.0 0.0 0.00 0.00 0.00 47 1015.2
20260507064600 11 304 0.0 0.0 0.00 0.00 0.00 46 1015.1
20260507063100 11 300 0.0 0.0 0.00 0.00 0.00 46 1015.0
20260507061600 11 319 0.0 0.0 0.00 0.00 0.00 46 1014.9
20260507060107 11 323 0.0 0.0 0.00 0.00 0.00 45 1014.8
20260507054559 11 311 0.0 0.0 0.00 0.00 0.00 44 1014.8
20260507053057 12 309 0.0 0.0 0.00 0.00 0.00 44 1014.7
20260507051557 12 309 0.0 0.0 0.00 0.00 0.00 43 1014.6
20260507050059 12 309 0.0 0.0 0.00 0.00 0.00 42 1014.7
20260507044557 13 309 0.0 0.0 0.00 0.00 0.00 41 1014.5
20260507043100 13 310 0.0 0.0 0.00 0.00 0.00 40 1014.5
20260507041555 14 310 0.0 0.0 0.00 0.00 0.00 38 1014.4
20260507040054 14 292 0.0 0.0 0.00 0.00 0.00 37 1014.2
20260507034559 15 295 0.0 0.0 0.00 0.00 0.00 37 1014.1
20260507033053 15 271 0.0 0.0 0.00 0.00 0.00 35 1013.8
20260507031552 16 304 0.0 0.0 0.00 0.00 0.00 34 1013.6
20260507030052 17 302 0.0 0.0 0.00 0.00 0.00 33 1013.2
20260507024558 17 294 0.0 0.0 0.00 0.00 0.00 32 1012.9
20260507023050 18 283 0.0 0.0 0.00 0.00 0.00 31 1012.8
20260507021551 18 261 0.0 0.0 0.00 0.00 0.00 29 1012.5
20260507020053 19 241 0.0 0.0 0.00 0.00 0.00 28 1012.4
20260507014550 20 285 0.0 0.0 0.00 0.00 0.00 27 1012.3
20260507013047 20 237 0.0 0.0 0.00 0.00 0.00 26 1012.2
20260507011549 21 211 0.0 0.0 0.00 0.00 0.00 26 1012.1
20260507010104 21 297 0.0 0.0 0.00 0.00 0.00 24 1012.1
20260507004545 22 5 0.0 0.0 0.00 0.00 0.00 24 1012.0
20260507003044 22 319 0.0 0.0 0.00 0.00 0.00 24 1011.9
20260507001551 22 212 0.0 0.0 0.00 0.00 0.00 23 1011.9
20260507000041 22 170 0.0 0.0 0.00 0.00 0.00 24 1011.7
20260506234539 21 298 0.0 0.0 0.00 0.00 0.00 25 1011.8
20260506233038 21 269 0.0 0.0 0.00 0.00 0.00 25 1011.9
20260506231538 21 233 0.0 0.0 0.00 0.00 0.00 25 1012.0
20260506230042 22 325 0.0 0.0 0.00 0.00 0.00 24 1012.1
20260506224535 21 245 0.0 0.0 0.00 0.00 0.00 24 1012.4
20260506223036 22 185 0.0 0.0 0.00 0.00 0.00 25 1012.5
20260506221542 22 244 0.0 0.0 0.00 0.00 0.00 25 1012.7
20260506220040 21 219 0.0 0.0 0.00 0.00 0.00 25 1012.7
20260506214532 21 254 0.0 0.0 0.00 0.00 0.00 25 1012.9
20260506213032 21 260 0.0 0.0 0.00 0.00 0.00 24 1013.4
20260506211534 21 237 0.0 0.0 0.00 0.00 0.00 26 1013.6
20260506210030 21 84 0.0 0.0 0.00 0.00 0.00 26 1014.0
20260506204530 21 242 0.0 0.0 0.00 0.00 0.00 25 1014.2
20260506203028 21 301 0.0 0.0 0.00 0.00 0.00 27 1014.3
20260506201528 21 347 0.0 4.8 0.00 0.00 0.00 27 1014.3
20260506200022 20 337 0.0 6.4 0.00 0.00 0.00 28 1014.4
20260506194522 20 313 0.0 8.0 0.00 0.00 0.00 29 1014.7
20260506193019 20 331 0.0 0.0 0.00 0.00 0.00 29 1014.7
20260506191515 19 194 0.0 0.0 0.00 0.00 0.00 30 1015.0
20260506190013 19 263 0.0 0.0 0.00 0.00 0.00 31 1015.2
20260506184520 18 96 0.0 0.0 0.00 0.00 0.00 31 1015.3
20260506183008 17 339 0.0 0.0 0.00 0.00 0.00 32 1015.4
20260506181506 17 231 0.0 0.0 0.00 0.00 0.00 33 1015.6
20260506180006 17 350 0.0 0.0 0.00 0.03 0.00 33 1015.8
20260506174502 16 311 0.0 0.0 0.00 0.03 0.00 34 1015.8
20260506173002 17 279 0.0 0.0 0.00 0.03 0.00 36 1015.8
20260506171600 16 314 0.0 0.0 0.00 0.03 0.00 36 1015.9
20260506170054 16 229 0.0 0.0 0.00 0.05 0.00 38 1015.8
20260506164553 15 199 0.0 0.0 0.00 0.05 0.00 39 1015.8
20260506163054 15 269 0.0 0.0 0.00 0.05 0.00 38 1015.7
20260506161548 14 303 0.0 0.0 0.00 0.05 0.00 39 1015.7
20260506160143 13 326 0.0 0.0 0.00 0.18 0.00 46 1015.7
20260506154539 12 317 0.0 0.0 0.00 0.18 0.00 48 1015.8
20260506153042 11 161 0.0 0.0 0.00 0.18 0.00 49 1015.8
20260506151531 11 275 0.0 0.0 0.00 0.18 0.00 51 1015.7
20260506150027 10 234 0.0 0.0 0.00 0.18 0.00 54 1015.8
20260506144537 10 265 0.0 0.0 0.00 0.18 0.00 57 1015.6
20260506143020 8 266 0.0 0.0 0.00 0.18 0.00 61 1015.6
20260506141515 7 265 0.0 0.0 0.00 0.18 0.00 67 1015.7
20260506140010 5 264 0.0 0.0 0.00 0.18 0.00 76 1015.6
20260506134509 4 265 0.0 0.0 0.00 0.18 0.00 79 1015.3
20260506133007 3 258 0.0 0.0 0.00 0.18 0.00 79 1015.3
20260506131506 3 265 0.0 0.0 0.00 0.18 0.00 79 1015.1
20260506130003 3 267 0.0 0.0 0.00 0.18 0.00 78 1014.8
20260506124600 3 268 0.0 0.0 0.00 0.18 0.00 77 1014.5
20260506123101 3 268 0.0 0.0 0.00 0.18 0.00 77 1014.3
20260506121559 3 268 0.0 0.0 0.00 0.18 0.00 77 1014.1
20260506120100 3 268 0.0 0.0 0.00 0.18 0.00 76 1013.9
20260506114552 3 268 0.0 0.0 0.00 0.18 0.00 75 1013.9
20260506113053 3 267 0.0 0.0 0.00 0.18 0.00 75 1013.9
20260506111548 3 267 0.0 0.0 0.00 0.18 0.00 74 1013.8
20260506110046 3 268 0.0 0.0 0.00 0.18 0.00 74 1013.5
20260506104554 3 267 0.0 0.0 0.00 0.18 0.00 74 1013.4
20260506103042 3 267 0.0 0.0 0.00 0.18 0.00 74 1013.2
20260506101541 3 267 0.0 0.0 0.00 0.18 0.00 73 1013.1